[[{"header":{"parameterUnit":"m.s-1","parameterCategory":2,"la1":30.2991,"la2":30.254,"lo1":-89.0895,"lo2":-89.0444,"dy":0.0017,"dx":0.0017,"nx":28,"ny":28,"refTime":"2025-03-20T21:00:00:Z","depth":"0","parameterNumber":2,"parameterNumberName":"U-component_of_CURRENTS"},"data":[0,0,0,0,0,0,0,0,0,0,0,0,0,0,0,0,0,0,0,0,0,0,0,0,0,0,0,0,0,0,0,0,0,0,0,0,0,0,0,0,0,0,0,0,0,0,0,0,0,0,0,0,0,0,0,0,0,0,-0.2907,-0.2909,0,-0.3033,-0.3035,-0.3036,-0.2966,-0.2962,-0.2959,-0.2955,-0.3079,-0.3085,-0.3092,0,0,0,0,0,0,0,0,0,0,0,0,0,-0.2763,-0.2765,-0.2907,-0.2909,-0.291,-0.3033,-0.3035,-0.3037,-0.2966,-0.2962,-0.2958,-0.2954,-0.3077,-0.3084,-0.3092,0,0,0,0,0,0,0,0,0,0,0,0,0,-0.2851,-0.2766,-0.2907,-0.2889,-0.2889,-0.3033,-0.3035,-0.3037,-0.2967,-0.2962,-0.2957,-0.2952,-0.3074,-0.3084,-0.3093,-0.3262,0,0,-0.3124,-0.3128,0,0,0,0,0,0,0,0,-0.2846,-0.2857,-0.289,-0.2891,-0.2891,-0.2978,-0.3029,-0.3112,-0.2969,-0.2938,-0.2955,-0.2949,-0.3048,-0.306,-0.3097,-0.3267,-0.3273,-0.3125,-0.3131,-0.3135,-0.3138,0,0,0,0,0,0,0,-0.284,-0.2852,-0.2958,-0.2893,-0.2893,-0.2929,-0.2934,-0.3045,-0.3022,-0.2941,-0.2936,-0.295,-0.3047,-0.3087,-0.3099,-0.3275,-0.3124,-0.3133,-0.3139,-0.3143,-0.3419,-0.3421,0,0,0,0,0,0,-0.2821,-0.2846,-0.2954,-0.2962,-0.2854,-0.2935,-0.2941,-0.2956,-0.3021,-0.3026,-0.2955,-0.2946,-0.3073,-0.3088,-0.3103,-0.3192,-0.3135,-0.3144,-0.315,-0.3418,-0.342,-0.3421,0,0,0,0,0,0,-0.2818,-0.283,-0.2949,-0.2905,-0.2923,-0.2942,-0.296,-0.2961,-0.2976,-0.3032,-0.3035,-0.2963,-0.3069,-0.3089,-0.3206,-0.3199,-0.3149,-0.3158,-0.3416,-0.3418,-0.342,-0.3442,0,0,0,0,0,0,-0.2813,-0.2828,-0.2832,-0.2904,-0.2924,-0.3045,-0.2965,-0.2967,-0.2994,-0.2984,-0.3043,-0.3049,-0.3067,-0.3192,-0.3216,-0.3212,-0.3165,-0.3415,-0.3417,-0.342,-0.344,-0.3445,-0.3449,0,0,0,0,0,-0.2808,-0.2835,-0.2832,-0.2845,-0.293,-0.3048,-0.3065,-0.3059,-0.2999,-0.3044,-0.3073,-0.3046,-0.3221,-0.3205,-0.3232,-0.323,-0.3413,-0.3416,-0.3419,-0.3438,-0.3444,-0.3449,0,0,0,0,0,0,-0.2771,-0.2833,-0.283,-0.2871,-0.2958,-0.3035,-0.3062,-0.3069,-0.313,-0.31,-0.3124,-0.314,-0.3221,-0.3248,-0.3227,-0.3311,-0.3291,-0.33,-0.3295,-0.3301,-0.3306,-0.3212,-0.3174,0,0,0,0,0,-0.2771,-0.2799,-0.2887,-0.2922,-0.2958,-0.3013,-0.3052,-0.3067,-0.3129,-0.3145,-0.3205,-0.3235,-0.3269,-0.33,-0.3364,-0.3464,-0.3408,-0.346,-0.3465,-0.3468,-0.3409,-0.3328,-0.3317,-0.3431,-0.3431,-0.3431,0,0,-0.2764,-0.2802,-0.2816,-0.2916,-0.2963,-0.3052,-0.3022,-0.3095,-0.3144,-0.316,-0.3254,-0.3286,-0.3304,-0.3382,-0.3415,-0.3397,-0.3424,-0.3472,-0.3475,-0.3412,-0.3329,-0.3317,-0.3306,-0.3433,-0.3433,-0.3433,0,0,-0.2783,-0.2804,-0.2841,-0.2925,-0.3016,-0.3072,-0.3094,-0.3203,-0.3212,-0.335,-0.3311,-0.3334,-0.3482,-0.3441,-0.3439,-0.3518,-0.346,-0.3541,-0.3487,-0.3412,-0.3399,-0.3387,-0.3365,-0.335,-0.3532,-0.3532,-0.3532,0,-0.277,-0.2819,-0.288,-0.2959,-0.2995,-0.3079,-0.3135,-0.3211,-0.3348,-0.3327,-0.338,-0.3432,-0.3481,-0.3429,-0.3449,-0.3518,-0.3483,-0.3466,-0.3411,-0.3398,-0.3385,-0.3363,-0.3347,-0.3534,-0.3533,-0.3533,-0.3533,0,-0.2833,-0.2876,-0.2912,-0.3017,-0.3088,-0.316,-0.326,-0.3327,-0.3362,-0.34,-0.3405,-0.3474,-0.3458,-0.3489,-0.351,-0.3421,-0.3433,-0.3433,-0.3383,-0.3374,-0.3355,-0.3337,-0.3536,-0.3535,-0.3535,-0.3534,0,0,-0.2782,-0.2917,-0.2927,-0.2952,-0.3102,-0.3162,-0.324,-0.329,-0.3274,-0.3399,-0.3347,-0.3406,-0.3384,-0.3374,-0.3377,-0.3322,-0.3265,-0.3341,-0.3337,-0.3294,-0.3124,-0.3023,-0.2995,-0.325,-0.3246,-0.3242,-0.3168,0,-0.2796,-0.2895,-0.2962,-0.3049,-0.3099,-0.3169,-0.3231,-0.3283,-0.333,-0.335,-0.3312,-0.3323,-0.3356,-0.3341,-0.3285,-0.3278,-0.3209,-0.3286,-0.3157,-0.3153,-0.3041,-0.2966,-0.2868,-0.278,-0.315,-0.3147,-0.3145,0,-0.2827,-0.2876,-0.2937,-0.2999,-0.3019,-0.3091,-0.31,-0.3171,-0.3193,-0.3215,-0.317,-0.3191,-0.3128,-0.3176,-0.3073,-0.3123,-0.3098,-0.309,-0.3087,-0.2945,-0.3013,-0.2838,-0.2733,-0.2726,-0.3118,-0.312,-0.3122,0,-0.2735,-0.2845,-0.2857,-0.2901,-0.3019,-0.3005,-0.3051,-0.3096,-0.311,-0.3106,-0.3117,-0.3047,-0.3039,-0.2969,-0.2986,-0.3021,-0.288,-0.2932,-0.2798,-0.2796,-0.2652,-0.2641,-0.2481,-0.279,-0.279,-0.2791,-0.2791,0,-0.2715,-0.2732,-0.2812,-0.2839,-0.283,-0.2923,-0.291,-0.2948,-0.2982,-0.2984,-0.302,-0.3004,-0.2984,-0.2938,-0.2925,-0.28,-0.2821,-0.2729,-0.2727,-0.2669,-0.2661,-0.2598,-0.2651,-0.2788,-0.2789,-0.2789,-0.279,0,-0.2636,-0.27,-0.2722,-0.2789,-0.2801,-0.2792,-0.2854,-0.2857,-0.2907,-0.2908,-0.2907,-0.2951,-0.2885,-0.2853,-0.2767,-0.2718,-0.2568,-0.2566,-0.2525,-0.2513,-0.2355,-0.2414,-0.2215,-0.2147,-0.2384,-0.2381,-0.2378,0,-0.2606,-0.2612,-0.266,-0.2662,-0.2691,-0.2703,-0.2721,-0.2796,-0.2816,-0.2877,-0.287,-0.2832,-0.2776,-0.262,-0.251,-0.2381,-0.242,-0.2229,-0.2236,-0.226,-0.2328,-0.2389,-0.2353,-0.2111,-0.2106,-0.2102,-0.2099,0,-0.2528,-0.254,-0.2552,-0.2559,-0.257,-0.2584,-0.2619,-0.263,-0.272,-0.2731,-0.273,-0.2684,-0.2552,-0.2368,-0.2203,-0.2129,-0.2174,-0.2137,-0.2148,-0.204,-0.2105,-0.207,-0.2315,-0.2063,-0.2066,-0.2069,-0.2071,-0.2072,-0.244,-0.2422,-0.2433,-0.2423,-0.2442,-0.2439,-0.2403,-0.2467,-0.2465,-0.2454,-0.2529,-0.2426,-0.2301,-0.2036,-0.1943,-0.1774,-0.187,-0.1741,-0.1804,-0.1859,-0.1773,-0.1939,-0.1687,-0.1689,-0.169,-0.1691,-0.1692,0,-0.2314,-0.2303,-0.2298,-0.2278,-0.2241,-0.2296,-0.2309,-0.2252,-0.2202,-0.2239,-0.2195,-0.2086,-0.1881,-0.1784,-0.1606,-0.1502,-0.1483,-0.148,-0.1562,-0.1533,-0.1645,-0.1611,-0.1345,-0.1345,-0.1345,-0.1345,-0.1345,-0.1345,-0.2245,-0.2183,-0.2178,-0.2065,-0.2052,-0.1946,-0.1916,-0.1866,-0.1854,-0.1766,-0.1739,-0.1744,-0.168,-0.1717,-0.1537,-0.1434,-0.1425,-0.1365,-0.1403,-0.1537,-0.1569,-0.1599,-0.1573,-0.1304,-0.1305,-0.123,-0.123,-0.123]},{"header":{"parameterUnit":"m.s-1","parameterCategory":2,"la1":30.2991,"la2":30.254,"lo1":-89.0895,"lo2":-89.0444,"dy":0.0017,"dx":0.0017,"nx":28,"ny":28,"refTime":"2025-03-20T21:00:00:Z","depth":"0","parameterNumber":3,"parameterNumberName":"V-component_of_CURRENTS"},"data":[0,0,0,0,0,0,0,0,0,0,0,0,0,0,0,0,0,0,0,0,0,0,0,0,0,0,0,0,0,0,0,0,0,0,0,0,0,0,0,0,0,0,0,0,0,0,0,0,0,0,0,0,0,0,0,0,0,0,-0.0527,-0.0526,0,-0.0403,-0.0401,-0.0399,-0.0316,-0.0316,-0.0316,-0.0315,-0.0042,-0.0035,-0.0028,0,0,0,0,0,0,0,0,0,0,0,0,0,-0.0558,-0.0558,-0.0527,-0.0526,-0.0525,-0.0403,-0.0401,-0.0399,-0.0316,-0.0316,-0.0316,-0.0315,-0.0044,-0.0036,-0.0027,0,0,0,0,0,0,0,0,0,0,0,0,0,-0.0497,-0.0559,-0.0527,-0.0472,-0.0466,-0.0404,-0.0401,-0.0398,-0.0316,-0.0316,-0.0316,-0.0315,-0.0047,-0.0037,-0.0026,0.0034,0,0,0.0007,0.0011,0,0,0,0,0,0,0,0,-0.05,-0.0495,-0.0481,-0.0476,-0.0469,-0.0378,-0.0312,-0.0248,-0.0316,-0.0368,-0.0315,-0.0315,-0.0144,-0.0125,-0.0098,0.0047,0.0059,0.0008,0.0014,0.0019,0.0022,0,0,0,0,0,0,0,-0.0505,-0.0499,-0.0473,-0.048,-0.0473,-0.0408,-0.0399,-0.0299,-0.0253,-0.0364,-0.0359,-0.0352,-0.0139,-0.0109,-0.0091,0.0063,0.0007,0.0017,0.0023,0.0027,0.0451,0.0456,0,0,0,0,0,0,-0.0537,-0.0504,-0.0477,-0.047,-0.0489,-0.0408,-0.0399,-0.0404,-0.0257,-0.0237,-0.0352,-0.0348,-0.0127,-0.0103,-0.0081,0.0074,0.0018,0.0029,0.0035,0.0447,0.0452,0.0458,0,0,0,0,0,0,-0.0538,-0.0536,-0.0483,-0.0487,-0.0476,-0.041,-0.0415,-0.0402,-0.0375,-0.0251,-0.0227,-0.034,-0.0126,-0.0096,0.0035,0.0082,0.0033,0.0043,0.0441,0.0448,0.0455,0.0336,0,0,0,0,0,0,-0.054,-0.0537,-0.0545,-0.049,-0.0477,-0.0448,-0.0416,-0.04,-0.0373,-0.0367,-0.0231,-0.0206,-0.0123,0.0018,0.0045,0.0096,0.0051,0.0435,0.0444,0.0453,0.0334,0.0338,0.0342,0,0,0,0,0,-0.0541,-0.0557,-0.0546,-0.0543,-0.0493,-0.0449,-0.0435,-0.0383,-0.0373,-0.0358,-0.0249,-0.021,0.0097,0.0029,0.006,0.0115,0.043,0.0442,0.0452,0.0332,0.0337,0.0342,0,0,0,0,0,0,-0.0566,-0.0549,-0.0536,-0.0544,-0.0502,-0.0436,-0.0422,-0.0392,-0.03,-0.0291,-0.0175,-0.014,0.0007,0.0089,0.0011,0.028,0.0282,0.0299,0.0181,0.0187,0.0191,0.0103,0.006,0,0,0,0,0,-0.0581,-0.0591,-0.0552,-0.0554,-0.0543,-0.0486,-0.0462,-0.0431,-0.035,-0.0313,-0.0209,-0.0069,0.0078,0.0146,0.0283,0.0398,0.0409,0.0474,0.0478,0.048,0.044,0.0439,0.0434,0.0494,0.0494,0.0493,0,0,-0.0589,-0.0582,-0.0586,-0.056,-0.0527,-0.0492,-0.047,-0.0444,-0.0386,-0.0292,-0.0174,-0.0058,0.0118,0.0266,0.034,0.0332,0.0494,0.0494,0.0493,0.0452,0.0449,0.0441,0.0434,0.0501,0.05,0.0499,0,0,-0.0618,-0.0609,-0.063,-0.0599,-0.0566,-0.051,-0.0509,-0.0441,-0.0385,-0.0263,-0.0162,-0.0047,0.0183,0.0288,0.0383,0.0493,0.0518,0.0581,0.0512,0.0512,0.0502,0.0494,0.0562,0.056,0.0574,0.0574,0.0574,0,-0.0626,-0.065,-0.0622,-0.0623,-0.0599,-0.0522,-0.0516,-0.0429,-0.0315,-0.0288,-0.0224,0.0047,0.0193,0.0331,0.04,0.049,0.0508,0.0457,0.05,0.0492,0.0485,0.0556,0.0556,0.0569,0.057,0.057,0.0571,0,-0.0664,-0.0674,-0.068,-0.0648,-0.0608,-0.0592,-0.0487,-0.043,-0.0343,-0.0273,-0.0137,0.0042,0.0173,0.0284,0.039,0.0446,0.0485,0.0492,0.0442,0.0469,0.0548,0.0549,0.0563,0.0565,0.0566,0.0567,0,0,-0.0703,-0.0712,-0.0711,-0.0718,-0.0631,-0.0607,-0.051,-0.0433,-0.0409,-0.0259,-0.0224,0.0042,0.0065,0.0175,0.0299,0.033,0.0358,0.0387,0.0389,0.0376,0.0388,0.0463,0.0473,0.0336,0.0335,0.0334,0.048,0,-0.074,-0.0781,-0.075,-0.0736,-0.0742,-0.0653,-0.0578,-0.0494,-0.0389,-0.032,-0.0177,-0.0061,0.0053,0.0108,0.0149,0.0318,0.0346,0.032,0.0433,0.0438,0.0432,0.047,0.0513,0.0648,0.0481,0.0481,0.0481,0,-0.0781,-0.0807,-0.0837,-0.0827,-0.0822,-0.0781,-0.0709,-0.0632,-0.0517,-0.0449,-0.0375,-0.0257,-0.0128,-0.0054,0.013,0.0098,0.022,0.0332,0.0339,0.043,0.0511,0.0595,0.0656,0.0825,0.0483,0.0483,0.0483,0,-0.0841,-0.0858,-0.0894,-0.0883,-0.0844,-0.0842,-0.0796,-0.0698,-0.065,-0.0553,-0.0519,-0.0393,-0.0286,-0.0174,0.0102,0.0094,0.0292,0.0307,0.048,0.0491,0.0561,0.0578,0.0719,0.0366,0.0365,0.0365,0.0364,0,-0.0891,-0.0917,-0.0938,-0.0955,-0.0988,-0.0929,-0.0929,-0.0872,-0.0795,-0.075,-0.0615,-0.0537,-0.0322,-0.0154,0.0037,0.0289,0.0233,0.0462,0.0512,0.054,0.0553,0.073,0.0795,0.037,0.0369,0.0368,0.0367,0,-0.0946,-0.0961,-0.1008,-0.1019,-0.1023,-0.1043,-0.1011,-0.1009,-0.0927,-0.0864,-0.0835,-0.0632,-0.0401,-0.0164,0.0093,0.0242,0.0572,0.0545,0.0609,0.0661,0.0948,0.1005,0.1186,0.1298,0.0732,0.0735,0.0737,0,-0.0979,-0.1016,-0.1068,-0.1105,-0.1115,-0.1135,-0.1146,-0.1079,-0.1056,-0.0898,-0.0868,-0.0639,-0.0432,-0.0016,0.0273,0.0583,0.0711,0.0788,0.0765,0.0964,0.1065,0.1105,0.1188,0.0859,0.0862,0.0864,0.0866,0,-0.1034,-0.1056,-0.11,-0.1189,-0.1226,-0.1255,-0.1256,-0.1257,-0.1152,-0.1061,-0.0879,-0.0702,-0.0281,0.0108,0.0501,0.0686,0.0915,0.0845,0.101,0.1134,0.1224,0.1356,0.0815,0.0887,0.0885,0.0883,0.0882,0.0881,-0.1065,-0.1119,-0.1187,-0.1261,-0.1313,-0.1351,-0.1356,-0.1315,-0.1245,-0.1063,-0.0888,-0.0558,-0.0038,0.0535,0.0742,0.1162,0.1118,0.1284,0.1334,0.1355,0.1456,0.0992,0.1132,0.1131,0.1131,0.113,0.113,0,-0.1102,-0.1166,-0.125,-0.1335,-0.1395,-0.1401,-0.1406,-0.1357,-0.1249,-0.1024,-0.0788,-0.0153,0.0358,0.0822,0.1392,0.1629,0.1679,0.175,0.1807,0.1866,0.1426,0.1424,0.1683,0.1682,0.1682,0.1682,0.1682,0.1682,-0.1124,-0.1215,-0.1265,-0.1375,-0.1429,-0.1458,-0.145,-0.1336,-0.1161,-0.075,-0.0357,-0.0018,0.0649,0.1484,0.2008,0.2066,0.227,0.226,0.2372,0.2059,0.2019,0.198,0.1995,0.2368,0.2369,0.2804,0.2808,0.2811]}],[{"header":{"parameterUnit":"m.s-1","parameterCategory":2,"la1":30.2991,"la2":30.254,"lo1":-89.0895,"lo2":-89.0444,"dy":0.0017,"dx":0.0017,"nx":28,"ny":28,"refTime":"2025-03-20T21:00:00:Z","depth":"2","parameterNumber":2,"parameterNumberName":"U-component_of_CURRENTS"},"data":[0,0,0,0,0,0,0,0,0,0,0,0,0,0,0,0,0,0,0,0,0,0,0,0,0,0,0,0,0,0,0,0,0,0,0,0,0,0,0,0,0,0,0,0,0,0,0,0,0,0,0,0,0,0,0,0,0,0,-0.2583,-0.2584,0,-0.2638,-0.2638,-0.2639,-0.2592,-0.259,-0.2588,-0.2586,-0.2603,-0.2605,-0.2607,0,0,0,0,0,0,0,0,0,0,0,0,0,-0.2506,-0.2508,-0.2583,-0.2584,-0.2585,-0.2637,-0.2638,-0.2639,-0.2592,-0.259,-0.2588,-0.2585,-0.2602,-0.2605,-0.2608,0,0,0,0,0,0,0,0,0,0,0,0,0,-0.2548,-0.2508,-0.2583,-0.2568,-0.2567,-0.2637,-0.2638,-0.2639,-0.2593,-0.259,-0.2587,-0.2584,-0.2601,-0.2605,-0.2608,-0.2686,0,0,-0.2618,-0.262,0,0,0,0,0,0,0,0,-0.2545,-0.2551,-0.2569,-0.2569,-0.2568,-0.2605,-0.2617,-0.2653,-0.2593,-0.2583,-0.2586,-0.2583,-0.2603,-0.2606,-0.2622,-0.2687,-0.2688,-0.2618,-0.262,-0.2622,-0.2623,0,0,0,0,0,0,0,-0.2543,-0.2548,-0.2604,-0.257,-0.257,-0.2581,-0.2583,-0.2624,-0.2607,-0.2583,-0.258,-0.2588,-0.2601,-0.2619,-0.2622,-0.2688,-0.2618,-0.2621,-0.2623,-0.2625,-0.2746,-0.2748,0,0,0,0,0,0,-0.2536,-0.2546,-0.2603,-0.2606,-0.255,-0.2585,-0.2587,-0.2596,-0.2607,-0.2607,-0.259,-0.2585,-0.2615,-0.2619,-0.2623,-0.2648,-0.2622,-0.2625,-0.2627,-0.2745,-0.2747,-0.2748,0,0,0,0,0,0,-0.2535,-0.2541,-0.26,-0.2577,-0.2585,-0.2589,-0.2599,-0.2599,-0.2605,-0.2613,-0.2611,-0.2595,-0.2613,-0.2618,-0.2647,-0.265,-0.2627,-0.263,-0.2744,-0.2746,-0.2747,-0.2742,0,0,0,0,0,0,-0.2532,-0.254,-0.2543,-0.2577,-0.2586,-0.2637,-0.2602,-0.2602,-0.2615,-0.2608,-0.2618,-0.2616,-0.2611,-0.2642,-0.265,-0.2654,-0.2632,-0.2742,-0.2745,-0.2747,-0.274,-0.2743,-0.2745,0,0,0,0,0,-0.2529,-0.2548,-0.2543,-0.255,-0.2591,-0.2639,-0.2645,-0.2638,-0.2618,-0.2631,-0.2629,-0.2616,-0.2661,-0.2646,-0.2656,-0.2661,-0.2741,-0.2744,-0.2747,-0.2739,-0.2743,-0.2745,0,0,0,0,0,0,-0.2513,-0.2546,-0.2541,-0.2567,-0.2597,-0.263,-0.2644,-0.2646,-0.266,-0.2649,-0.2643,-0.2644,-0.2668,-0.2679,-0.2662,-0.2704,-0.2696,-0.2701,-0.2687,-0.2691,-0.2693,-0.2665,-0.2635,0,0,0,0,0,-0.2515,-0.2533,-0.2569,-0.2587,-0.2605,-0.2627,-0.2644,-0.2647,-0.2666,-0.2668,-0.2676,-0.2683,-0.2695,-0.2701,-0.2722,-0.2759,-0.2741,-0.2767,-0.2769,-0.2771,-0.2757,-0.2735,-0.2733,-0.2757,-0.2757,-0.2757,0,0,-0.2512,-0.2533,-0.2542,-0.2585,-0.2606,-0.2632,-0.2629,-0.2664,-0.2671,-0.2672,-0.2687,-0.2702,-0.2709,-0.2734,-0.2745,-0.2737,-0.2759,-0.2775,-0.2776,-0.276,-0.2737,-0.2734,-0.2732,-0.2759,-0.2759,-0.2758,0,0,-0.2522,-0.2539,-0.2558,-0.2588,-0.2628,-0.2643,-0.2653,-0.2695,-0.2695,-0.2737,-0.2717,-0.2724,-0.2778,-0.2755,-0.2755,-0.2793,-0.2777,-0.2815,-0.28,-0.278,-0.2777,-0.2773,-0.2754,-0.2749,-0.2811,-0.2811,-0.2811,0,-0.2514,-0.2538,-0.2572,-0.2602,-0.2618,-0.2645,-0.2667,-0.2686,-0.2727,-0.2733,-0.274,-0.2776,-0.2776,-0.2767,-0.2768,-0.2792,-0.2787,-0.2782,-0.2779,-0.2776,-0.2772,-0.2753,-0.2747,-0.2811,-0.2811,-0.2811,-0.2811,0,-0.2537,-0.2557,-0.2576,-0.2608,-0.2638,-0.2667,-0.2697,-0.2723,-0.2737,-0.2752,-0.2773,-0.2781,-0.279,-0.2797,-0.2793,-0.2773,-0.278,-0.2785,-0.2761,-0.2769,-0.2749,-0.2743,-0.2811,-0.2811,-0.2811,-0.2811,0,0,-0.2509,-0.2575,-0.2578,-0.2589,-0.2641,-0.2666,-0.2692,-0.2719,-0.2725,-0.2765,-0.277,-0.2778,-0.2782,-0.2781,-0.2776,-0.2753,-0.2722,-0.276,-0.2759,-0.2723,-0.2683,-0.2576,-0.256,-0.2733,-0.2732,-0.2731,-0.268,0,-0.2506,-0.2547,-0.2584,-0.261,-0.2629,-0.2669,-0.269,-0.272,-0.2747,-0.2767,-0.2765,-0.2776,-0.2775,-0.2779,-0.2756,-0.2738,-0.2707,-0.2735,-0.2697,-0.2695,-0.2583,-0.2549,-0.2382,-0.2313,-0.2674,-0.2673,-0.2673,0,-0.2502,-0.2529,-0.2556,-0.2601,-0.2614,-0.2634,-0.2665,-0.2691,-0.2725,-0.2753,-0.2764,-0.2776,-0.2748,-0.2752,-0.2701,-0.2727,-0.2696,-0.2678,-0.2676,-0.2567,-0.2576,-0.2365,-0.2289,-0.2663,-0.2664,-0.2665,-0.2665,0,-0.2445,-0.2502,-0.2513,-0.2532,-0.2595,-0.2609,-0.2634,-0.2679,-0.2699,-0.2731,-0.2754,-0.2746,-0.2737,-0.2708,-0.2671,-0.2692,-0.2615,-0.264,-0.251,-0.2503,-0.2344,-0.2324,-0.2582,-0.2582,-0.2582,-0.2583,-0.2583,0,-0.2417,-0.2426,-0.2487,-0.2496,-0.2507,-0.2569,-0.2585,-0.2622,-0.2669,-0.2684,-0.2727,-0.2729,-0.2726,-0.2694,-0.2664,-0.2555,-0.2605,-0.2481,-0.2468,-0.234,-0.2321,-0.2615,-0.262,-0.2581,-0.2581,-0.2581,-0.2582,0,-0.2351,-0.2395,-0.2409,-0.2467,-0.2482,-0.2486,-0.2548,-0.2564,-0.2624,-0.2645,-0.2654,-0.27,-0.2653,-0.2631,-0.2575,-0.2521,-0.2447,-0.2395,-0.2241,-0.2209,-0.2357,-0.2363,-0.2246,-0.2241,-0.2237,-0.2234,-0.2231,0,-0.2318,-0.232,-0.2367,-0.2372,-0.2394,-0.242,-0.244,-0.2519,-0.2544,-0.2617,-0.2616,-0.2602,-0.2548,-0.243,-0.2331,-0.2223,-0.2327,-0.2022,-0.2009,-0.2315,-0.2316,-0.2328,-0.2338,-0.1813,-0.1807,-0.1802,-0.1798,0,-0.2243,-0.226,-0.2271,-0.2282,-0.2299,-0.2318,-0.2356,-0.2369,-0.246,-0.2474,-0.2474,-0.2435,-0.2334,-0.2133,-0.2002,-0.1931,-0.2028,-0.1918,-0.2259,-0.192,-0.1901,-0.1905,-0.193,-0.1755,-0.1759,-0.1762,-0.1765,-0.1766,-0.2169,-0.2155,-0.2169,-0.2165,-0.2189,-0.2185,-0.2148,-0.2202,-0.2199,-0.2177,-0.2257,-0.2131,-0.209,-0.1775,-0.1659,-0.157,-0.1712,-0.1653,-0.1671,-0.1693,-0.1648,-0.1622,-0.1416,-0.1418,-0.142,-0.1422,-0.1424,0,-0.2057,-0.2051,-0.205,-0.2033,-0.2001,-0.2057,-0.2062,-0.1995,-0.1928,-0.1938,-0.1886,-0.1657,-0.1498,-0.1462,-0.1245,-0.1187,-0.1201,-0.1148,-0.1185,-0.1227,-0.1265,-0.1201,-0.085,-0.0848,-0.0846,-0.0845,0,0,-0.1996,-0.1943,-0.1938,-0.1834,-0.1825,-0.1721,-0.1684,-0.1611,-0.1572,-0.1446,-0.1373,-0.1438,-0.1433,-0.116,-0.1077,-0.0931,-0.1075,-0.0879,-0.134,-0.1427,-0.1463,-0.1552,-0.15,0,0,0,0,0]},{"header":{"parameterUnit":"m.s-1","parameterCategory":2,"la1":30.2991,"la2":30.254,"lo1":-89.0895,"lo2":-89.0444,"dy":0.0017,"dx":0.0017,"nx":28,"ny":28,"refTime":"2025-03-20T21:00:00:Z","depth":"2","parameterNumber":3,"parameterNumberName":"V-component_of_CURRENTS"},"data":[0,0,0,0,0,0,0,0,0,0,0,0,0,0,0,0,0,0,0,0,0,0,0,0,0,0,0,0,0,0,0,0,0,0,0,0,0,0,0,0,0,0,0,0,0,0,0,0,0,0,0,0,0,0,0,0,0,0,-0.0538,-0.0538,0,-0.0455,-0.0454,-0.0453,-0.0374,-0.0373,-0.0373,-0.0372,-0.0226,-0.0223,-0.022,0,0,0,0,0,0,0,0,0,0,0,0,0,-0.0548,-0.0549,-0.0539,-0.0538,-0.0537,-0.0455,-0.0454,-0.0452,-0.0374,-0.0373,-0.0372,-0.0371,-0.0227,-0.0224,-0.022,0,0,0,0,0,0,0,0,0,0,0,0,0,-0.051,-0.0549,-0.0539,-0.049,-0.0485,-0.0456,-0.0454,-0.0452,-0.0374,-0.0373,-0.0372,-0.0371,-0.0229,-0.0224,-0.0219,-0.0213,0,0,-0.0205,-0.0203,0,0,0,0,0,0,0,0,-0.0513,-0.051,-0.0498,-0.0493,-0.0487,-0.0426,-0.0404,-0.037,-0.0375,-0.0414,-0.0372,-0.037,-0.029,-0.028,-0.0264,-0.0206,-0.02,-0.0205,-0.0202,-0.02,-0.0198,0,0,0,0,0,0,0,-0.0516,-0.0513,-0.0503,-0.0497,-0.0491,-0.0444,-0.0438,-0.0397,-0.0356,-0.041,-0.0405,-0.04,-0.0286,-0.0269,-0.026,-0.0198,-0.0205,-0.02,-0.0198,-0.0196,-0.0083,-0.0082,0,0,0,0,0,0,-0.0537,-0.0516,-0.0506,-0.0501,-0.05,-0.0446,-0.0438,-0.0445,-0.0358,-0.0345,-0.0401,-0.0397,-0.0278,-0.0266,-0.0255,-0.0217,-0.02,-0.0195,-0.0192,-0.0083,-0.0083,-0.0082,0,0,0,0,0,0,-0.0537,-0.0537,-0.0509,-0.0507,-0.0501,-0.0447,-0.0455,-0.0444,-0.0425,-0.0352,-0.0337,-0.0393,-0.0276,-0.0261,-0.0226,-0.0212,-0.0193,-0.0189,-0.0083,-0.0083,-0.0082,-0.0157,0,0,0,0,0,0,-0.0538,-0.0538,-0.0547,-0.0509,-0.0502,-0.0501,-0.0456,-0.0443,-0.0425,-0.0418,-0.0341,-0.0326,-0.0274,-0.0233,-0.0221,-0.0205,-0.0185,-0.0083,-0.0083,-0.0082,-0.0155,-0.016,-0.0164,0,0,0,0,0,-0.0539,-0.056,-0.0548,-0.0547,-0.0517,-0.0503,-0.0495,-0.045,-0.0426,-0.0426,-0.0375,-0.0328,-0.0221,-0.0231,-0.0216,-0.0197,-0.0083,-0.0083,-0.0083,-0.0153,-0.0159,-0.0163,0,0,0,0,0,0,-0.0562,-0.0553,-0.0539,-0.0554,-0.0535,-0.049,-0.0486,-0.0459,-0.0419,-0.0411,-0.0338,-0.0321,-0.0282,-0.0235,-0.0247,-0.0163,-0.0139,-0.0136,-0.0198,-0.0203,-0.0207,-0.021,-0.0181,0,0,0,0,0,-0.0577,-0.0591,-0.0569,-0.0579,-0.0574,-0.0533,-0.052,-0.0495,-0.0457,-0.0438,-0.0385,-0.0323,-0.027,-0.0236,-0.019,-0.0151,-0.0098,-0.0125,-0.0129,-0.0133,-0.0126,-0.0045,-0.0042,-0.0081,-0.0081,-0.0081,0,0,-0.0587,-0.0584,-0.059,-0.0585,-0.0564,-0.0566,-0.0521,-0.0513,-0.0503,-0.043,-0.0399,-0.0346,-0.0268,-0.0224,-0.0199,-0.018,-0.0097,-0.0133,-0.0137,-0.0127,-0.0045,-0.0041,-0.0037,-0.0081,-0.0081,-0.0081,0,0,-0.0622,-0.0615,-0.0642,-0.0634,-0.062,-0.0593,-0.0597,-0.0562,-0.0534,-0.0512,-0.0445,-0.0387,-0.0321,-0.0248,-0.0205,-0.0204,-0.0132,-0.0187,-0.0198,-0.0121,-0.0117,-0.0113,-0.0056,-0.0046,-0.0177,-0.0177,-0.0177,0,-0.0633,-0.0665,-0.0645,-0.0666,-0.0656,-0.0612,-0.0626,-0.0598,-0.0553,-0.0521,-0.0515,-0.0384,-0.0326,-0.0236,-0.0234,-0.0211,-0.0166,-0.0188,-0.0127,-0.0121,-0.0116,-0.0058,-0.0046,-0.0181,-0.018,-0.018,-0.0179,0,-0.0691,-0.0709,-0.0722,-0.0732,-0.0718,-0.0726,-0.0687,-0.0667,-0.0631,-0.0586,-0.0512,-0.0434,-0.0345,-0.0316,-0.0276,-0.0195,-0.0177,-0.0154,-0.0118,-0.0116,-0.0056,-0.0042,-0.0186,-0.0184,-0.0183,-0.0182,0,0,-0.0726,-0.0758,-0.0761,-0.0773,-0.0753,-0.0749,-0.0729,-0.0685,-0.0658,-0.0602,-0.0549,-0.0451,-0.0394,-0.034,-0.0269,-0.0197,-0.0129,-0.0164,-0.0158,-0.0115,0.0028,0.0045,0.0062,-0.0098,-0.0095,-0.0093,0.0048,0,-0.0772,-0.0833,-0.0822,-0.0849,-0.087,-0.0816,-0.0797,-0.0746,-0.0691,-0.0633,-0.0524,-0.0458,-0.0405,-0.0363,-0.0281,-0.017,-0.0093,-0.017,0.0028,0.0034,0.0043,0.0079,0.0049,0.0173,0.0062,0.0064,0.0066,0,-0.0829,-0.086,-0.091,-0.0907,-0.0907,-0.0908,-0.085,-0.0828,-0.0727,-0.0681,-0.0581,-0.0501,-0.0376,-0.0347,-0.0141,-0.0195,-0.0087,-0.0003,0.0005,0.0061,0.0078,0.0159,0.0203,0.009,0.0088,0.0086,0.0085,0,-0.0871,-0.091,-0.095,-0.0954,-0.0949,-0.0942,-0.0921,-0.0841,-0.0812,-0.0705,-0.0667,-0.0511,-0.0436,-0.0281,-0.0108,-0.0121,0.0108,0.0115,0.0238,0.024,0.0276,0.0277,0.0269,0.0269,0.0268,0.0268,0.0267,0,-0.0922,-0.0951,-0.098,-0.1004,-0.1029,-0.0994,-0.0986,-0.0941,-0.0866,-0.0823,-0.0695,-0.0621,-0.0417,-0.0263,-0.0109,0.0108,0.0117,0.0251,0.0289,0.0247,0.0243,0.0222,0.0214,0.0273,0.0272,0.0271,0.027,0,-0.0964,-0.0988,-0.1036,-0.1053,-0.1059,-0.1074,-0.1053,-0.1041,-0.0963,-0.0903,-0.0873,-0.0693,-0.0489,-0.028,-0.0022,0.0105,0.0307,0.0384,0.0309,0.0335,0.0384,0.0372,0.0535,0.0537,0.0538,0.054,0.0541,0,-0.0993,-0.1029,-0.1083,-0.1117,-0.1132,-0.1149,-0.1158,-0.11,-0.1078,-0.0938,-0.091,-0.0707,-0.0539,-0.0163,0.009,0.0371,0.0375,0.0497,0.0476,0.0397,0.0418,0.0402,0.0387,0.0491,0.0492,0.0492,0.0493,0,-0.1036,-0.1059,-0.1102,-0.1184,-0.122,-0.1247,-0.1251,-0.1251,-0.1164,-0.1084,-0.0937,-0.0791,-0.0433,-0.0124,0.022,0.038,0.0444,0.0517,0.049,0.0416,0.0365,0.0381,0.0367,0.0498,0.0497,0.0497,0.0497,0.0496,-0.1059,-0.1106,-0.1172,-0.124,-0.129,-0.133,-0.1335,-0.1306,-0.1251,-0.1101,-0.0966,-0.0699,-0.0429,0.0081,0.0316,0.0535,0.053,0.0589,0.0585,0.058,0.0537,0.0491,0.0639,0.0639,0.0639,0.064,0.064,0,-0.1086,-0.1144,-0.122,-0.1301,-0.1359,-0.1369,-0.138,-0.1339,-0.1258,-0.1084,-0.0899,-0.0552,-0.0209,0.0083,0.043,0.0622,0.0604,0.0655,0.0589,0.0583,0.0578,0.0532,0.0635,0.0636,0.0636,0.0637,0,0,-0.1104,-0.1184,-0.123,-0.1334,-0.1388,-0.1422,-0.142,-0.1327,-0.119,-0.0987,-0.0774,-0.0522,-0.0178,0.0065,0.0301,0.0483,0.0483,0.0501,0.0484,0.0373,0.0365,0.0522,0.0442,0,0,0,0,0]}],[{"header":{"parameterUnit":"m.s-1","parameterCategory":2,"la1":30.2991,"la2":30.254,"lo1":-89.0895,"lo2":-89.0444,"dy":0.0017,"dx":0.0017,"nx":28,"ny":28,"refTime":"2025-03-20T21:00:00:Z","depth":"4","parameterNumber":2,"parameterNumberName":"U-component_of_CURRENTS"},"data":[0,0,0,0,0,0,0,0,0,0,0,0,0,0,0,0,0,0,0,0,0,0,0,0,0,0,0,0,0,0,0,0,0,0,0,0,0,0,0,0,0,0,0,0,0,0,0,0,0,0,0,0,0,0,0,0,0,0,-0.1827,-0.1828,0,-0.1875,-0.1876,-0.1877,-0.1899,-0.1899,-0.1899,-0.1899,-0.1966,-0.1967,-0.1969,0,0,0,0,0,0,0,0,0,0,0,0,0,-0.1775,-0.1776,-0.1827,-0.1828,-0.1828,-0.1875,-0.1876,-0.1877,-0.1899,-0.1899,-0.1899,-0.1899,-0.1965,-0.1967,-0.1969,0,0,0,0,0,0,0,0,0,0,0,0,0,-0.1808,-0.1776,-0.1827,-0.1845,-0.1847,-0.1875,-0.1876,-0.1877,-0.19,-0.1899,-0.1899,-0.1899,-0.1964,-0.1967,-0.197,-0.1989,0,0,-0.1978,-0.1979,0,0,0,0,0,0,0,0,-0.1806,-0.181,-0.1842,-0.1844,-0.1846,-0.1881,-0.1882,-0.1915,-0.19,-0.188,-0.1899,-0.1899,-0.1939,-0.1944,-0.1953,-0.1992,-0.1995,-0.1978,-0.198,-0.1981,-0.1982,0,0,0,0,0,0,0,-0.1804,-0.1809,-0.1847,-0.1842,-0.1845,-0.1858,-0.1862,-0.1888,-0.191,-0.1882,-0.1883,-0.1888,-0.194,-0.1951,-0.1955,-0.1996,-0.1978,-0.1981,-0.1982,-0.1983,-0.2042,-0.2042,0,0,0,0,0,0,-0.1796,-0.1806,-0.1845,-0.1848,-0.1825,-0.1858,-0.1863,-0.187,-0.191,-0.1915,-0.1888,-0.1889,-0.1946,-0.1952,-0.1958,-0.2,-0.1981,-0.1984,-0.1985,-0.2042,-0.2042,-0.2042,0,0,0,0,0,0,-0.1795,-0.1799,-0.1843,-0.1828,-0.1834,-0.1859,-0.1867,-0.1871,-0.1905,-0.1914,-0.192,-0.1919,-0.1946,-0.1954,-0.1987,-0.2002,-0.1985,-0.1987,-0.2042,-0.2042,-0.2042,-0.2074,0,0,0,0,0,0,-0.1793,-0.1799,-0.1817,-0.1827,-0.1835,-0.1871,-0.1867,-0.1872,-0.1906,-0.1908,-0.1943,-0.1947,-0.1947,-0.1983,-0.1989,-0.2006,-0.199,-0.2042,-0.2042,-0.2042,-0.2073,-0.2075,-0.2077,0,0,0,0,0,-0.1791,-0.1812,-0.1818,-0.1823,-0.1854,-0.1872,-0.1877,-0.1894,-0.1908,-0.1925,-0.1941,-0.1947,-0.1986,-0.1985,-0.1993,-0.2011,-0.2042,-0.2042,-0.2042,-0.2073,-0.2075,-0.2077,0,0,0,0,0,0,-0.18,-0.1817,-0.1823,-0.1848,-0.1864,-0.1875,-0.1901,-0.1912,-0.1941,-0.1953,-0.1959,-0.1964,-0.1992,-0.1997,-0.1997,-0.2022,-0.2011,-0.2012,-0.2031,-0.2034,-0.2035,-0.2042,-0.1992,0,0,0,0,0,-0.1809,-0.1831,-0.1842,-0.1865,-0.1877,-0.1896,-0.1913,-0.1925,-0.1943,-0.1957,-0.1975,-0.1989,-0.1994,-0.2012,-0.2018,-0.205,-0.205,-0.206,-0.2062,-0.2064,-0.2071,-0.2091,-0.2096,-0.2041,-0.2041,-0.2041,0,0,-0.182,-0.1832,-0.1847,-0.187,-0.1888,-0.1896,-0.1907,-0.1941,-0.1948,-0.1961,-0.1991,-0.2002,-0.2002,-0.2021,-0.2035,-0.2034,-0.2073,-0.2063,-0.2065,-0.2072,-0.2092,-0.2097,-0.2102,-0.2041,-0.2041,-0.2041,0,0,-0.1836,-0.1865,-0.1881,-0.1894,-0.1922,-0.1927,-0.1941,-0.1966,-0.1982,-0.2008,-0.2007,-0.2031,-0.2053,-0.2051,-0.2051,-0.2071,-0.2077,-0.2074,-0.2102,-0.2121,-0.2127,-0.2131,-0.2117,-0.212,-0.2082,-0.2082,-0.2082,0,-0.1848,-0.1864,-0.189,-0.1901,-0.1916,-0.1939,-0.1952,-0.1965,-0.1995,-0.2022,-0.202,-0.2062,-0.206,-0.2082,-0.2077,-0.2077,-0.2083,-0.2097,-0.2126,-0.2131,-0.2135,-0.212,-0.2123,-0.2083,-0.2083,-0.2083,-0.2083,0,-0.1855,-0.188,-0.1894,-0.1909,-0.1929,-0.1951,-0.1964,-0.1998,-0.2022,-0.2038,-0.2085,-0.2087,-0.2116,-0.211,-0.2098,-0.213,-0.212,-0.2123,-0.2126,-0.2143,-0.2124,-0.2127,-0.2085,-0.2085,-0.2084,-0.2084,0,0,-0.1841,-0.189,-0.1895,-0.1912,-0.194,-0.1955,-0.1983,-0.2017,-0.2055,-0.2083,-0.213,-0.213,-0.2161,-0.2161,-0.2161,-0.2173,-0.2188,-0.2167,-0.2167,-0.2161,-0.2218,-0.2048,-0.2035,-0.2211,-0.2212,-0.2213,-0.2186,0,-0.1836,-0.1862,-0.1889,-0.1915,-0.1928,-0.1972,-0.1996,-0.2037,-0.2075,-0.2125,-0.215,-0.2184,-0.2169,-0.2196,-0.2208,-0.2197,-0.2201,-0.2194,-0.2195,-0.2194,-0.2049,-0.2034,-0.2216,-0.2188,-0.2189,-0.2189,-0.219,0,-0.1813,-0.1839,-0.1871,-0.193,-0.1945,-0.1968,-0.2041,-0.2066,-0.2138,-0.2177,-0.2233,-0.2253,-0.2278,-0.226,-0.2267,-0.227,-0.2247,-0.2231,-0.2231,-0.2065,-0.2029,-0.2171,-0.2195,-0.2194,-0.2194,-0.2194,-0.2193,0,-0.1768,-0.1822,-0.1854,-0.187,-0.1936,-0.1981,-0.202,-0.2095,-0.213,-0.2217,-0.2255,-0.2305,-0.2319,-0.2325,-0.2278,-0.2291,-0.2267,-0.228,-0.2103,-0.2091,-0.2243,-0.2238,-0.2282,-0.2282,-0.2282,-0.2282,-0.2282,0,-0.1724,-0.1752,-0.1846,-0.1859,-0.1912,-0.1972,-0.2038,-0.2094,-0.2174,-0.2206,-0.2281,-0.2295,-0.2339,-0.2325,-0.2298,-0.2185,-0.2283,-0.2095,-0.2072,-0.2251,-0.2248,-0.2243,-0.2239,-0.2281,-0.2281,-0.2282,-0.2282,0,-0.1651,-0.1714,-0.1757,-0.1854,-0.1889,-0.1926,-0.2027,-0.2067,-0.2159,-0.2202,-0.2228,-0.2291,-0.2261,-0.2264,-0.2247,-0.2172,-0.2108,-0.2044,-0.2209,-0.2197,-0.1919,-0.1917,-0.1859,-0.1852,-0.1847,-0.1843,-0.1839,0,-0.1608,-0.1627,-0.1739,-0.1771,-0.1818,-0.1891,-0.1935,-0.2042,-0.2072,-0.2167,-0.2164,-0.2182,-0.2197,-0.2021,-0.2059,-0.1983,-0.1957,-0.1918,-0.1939,-0.1892,-0.1877,-0.1883,-0.1888,-0.1831,-0.1829,-0.1828,-0.1826,0,-0.1523,-0.1585,-0.1625,-0.169,-0.1747,-0.1793,-0.1861,-0.1867,-0.197,-0.2081,-0.2025,-0.199,-0.1942,-0.1903,-0.1837,-0.1796,-0.1948,-0.1863,-0.1875,-0.1894,-0.1857,-0.1849,-0.186,-0.1808,-0.1811,-0.1812,-0.1814,0,-0.1464,-0.1474,-0.154,-0.1577,-0.165,-0.1654,-0.1709,-0.1721,-0.1757,-0.1863,-0.1838,-0.1854,-0.1915,-0.1803,-0.1755,-0.1682,-0.1669,-0.1626,-0.165,-0.167,-0.1618,-0.1544,-0.1365,0,0,0,0,0,-0.1387,-0.1383,-0.1417,-0.1445,-0.1513,-0.1544,-0.1637,-0.1694,-0.1799,-0.1705,-0.1761,-0.1705,-0.1621,-0.164,-0.1521,-0.1677,-0.1682,-0.1535,-0.1648,-0.1706,-0.1728,-0.1682,0,0,0,0,0,0,-0.1335,-0.1364,-0.1368,-0.1322,-0.1315,-0.1361,-0.1409,-0.1484,-0.1439,-0.1552,-0.1506,-0.1597,-0.1534,-0.1644,-0.1481,-0.1485,-0.1519,-0.1561,-0.1556,-0.1694,-0.1713,-0.1731,-0.1691,0,0,0,0,0]},{"header":{"parameterUnit":"m.s-1","parameterCategory":2,"la1":30.2991,"la2":30.254,"lo1":-89.0895,"lo2":-89.0444,"dy":0.0017,"dx":0.0017,"nx":28,"ny":28,"refTime":"2025-03-20T21:00:00:Z","depth":"4","parameterNumber":3,"parameterNumberName":"V-component_of_CURRENTS"},"data":[0,0,0,0,0,0,0,0,0,0,0,0,0,0,0,0,0,0,0,0,0,0,0,0,0,0,0,0,0,0,0,0,0,0,0,0,0,0,0,0,0,0,0,0,0,0,0,0,0,0,0,0,0,0,0,0,0,0,-0.0395,-0.0394,0,-0.0356,-0.0355,-0.0355,-0.0305,-0.0304,-0.0303,-0.0303,-0.0223,-0.0222,-0.022,0,0,0,0,0,0,0,0,0,0,0,0,0,-0.0383,-0.0384,-0.0395,-0.0394,-0.0394,-0.0356,-0.0355,-0.0355,-0.0305,-0.0304,-0.0303,-0.0302,-0.0224,-0.0222,-0.022,0,0,0,0,0,0,0,0,0,0,0,0,0,-0.037,-0.0384,-0.0395,-0.0365,-0.0362,-0.0356,-0.0355,-0.0355,-0.0305,-0.0304,-0.0303,-0.0302,-0.0224,-0.0222,-0.022,-0.0229,0,0,-0.0214,-0.0213,0,0,0,0,0,0,0,0,-0.0371,-0.037,-0.037,-0.0367,-0.0364,-0.0335,-0.0322,-0.0311,-0.0305,-0.0326,-0.0303,-0.0301,-0.0258,-0.0253,-0.0248,-0.0225,-0.0222,-0.0213,-0.0212,-0.0211,-0.021,0,0,0,0,0,0,0,-0.0372,-0.0371,-0.0378,-0.037,-0.0366,-0.0339,-0.0337,-0.032,-0.0297,-0.0324,-0.032,-0.0318,-0.0256,-0.025,-0.0245,-0.022,-0.0213,-0.0211,-0.021,-0.0209,-0.0222,-0.0224,0,0,0,0,0,0,-0.0382,-0.0373,-0.038,-0.0377,-0.0366,-0.0341,-0.0337,-0.0344,-0.0298,-0.029,-0.0319,-0.0316,-0.0254,-0.0248,-0.0242,-0.0255,-0.0211,-0.0209,-0.0208,-0.0221,-0.0223,-0.0224,0,0,0,0,0,0,-0.0382,-0.0384,-0.0381,-0.0374,-0.0372,-0.0343,-0.035,-0.0344,-0.034,-0.0295,-0.0286,-0.0321,-0.0253,-0.0245,-0.0243,-0.0251,-0.0208,-0.0206,-0.0219,-0.0221,-0.0224,-0.0277,0,0,0,0,0,0,-0.0382,-0.0384,-0.0396,-0.0375,-0.0373,-0.0391,-0.0351,-0.0344,-0.0341,-0.0336,-0.0294,-0.0285,-0.0251,-0.0246,-0.0241,-0.0248,-0.0204,-0.0217,-0.022,-0.0223,-0.0274,-0.0281,-0.0288,0,0,0,0,0,-0.0382,-0.0404,-0.0397,-0.0398,-0.039,-0.0393,-0.039,-0.0363,-0.0342,-0.0352,-0.0326,-0.0287,-0.0261,-0.0246,-0.0239,-0.0245,-0.0215,-0.0219,-0.0223,-0.027,-0.028,-0.0288,0,0,0,0,0,0,-0.0402,-0.0401,-0.0392,-0.0412,-0.0409,-0.0385,-0.0391,-0.0373,-0.036,-0.0355,-0.0307,-0.0298,-0.0303,-0.0275,-0.026,-0.0263,-0.0232,-0.0235,-0.0271,-0.028,-0.0287,-0.0263,-0.0203,0,0,0,0,0,-0.0415,-0.0433,-0.0424,-0.044,-0.0442,-0.0419,-0.0416,-0.0403,-0.0387,-0.0379,-0.0352,-0.0327,-0.0314,-0.0298,-0.0288,-0.0285,-0.0222,-0.0287,-0.0295,-0.0301,-0.0279,-0.0181,-0.0175,-0.0237,-0.0237,-0.0236,0,0,-0.0427,-0.0429,-0.0438,-0.0446,-0.0438,-0.0455,-0.0415,-0.0422,-0.043,-0.0374,-0.038,-0.0358,-0.0325,-0.0326,-0.0324,-0.0298,-0.0262,-0.0305,-0.031,-0.0285,-0.0184,-0.0177,-0.0171,-0.0239,-0.0239,-0.0238,0,0,-0.0464,-0.0464,-0.0492,-0.0497,-0.0498,-0.0486,-0.0493,-0.0481,-0.047,-0.0485,-0.0441,-0.0414,-0.0415,-0.0365,-0.0347,-0.0388,-0.0314,-0.0404,-0.0402,-0.0308,-0.0301,-0.0293,-0.0245,-0.0233,-0.0394,-0.0394,-0.0394,0,-0.0478,-0.0511,-0.05,-0.0528,-0.053,-0.0506,-0.0529,-0.0525,-0.0514,-0.0491,-0.0502,-0.0448,-0.0425,-0.0373,-0.0395,-0.0397,-0.035,-0.0368,-0.0312,-0.0303,-0.0294,-0.0246,-0.0232,-0.0397,-0.0397,-0.0397,-0.0396,0,-0.0535,-0.0561,-0.0577,-0.0602,-0.0605,-0.0624,-0.0612,-0.0612,-0.0602,-0.0575,-0.0543,-0.0506,-0.0454,-0.0459,-0.0444,-0.0374,-0.0367,-0.034,-0.0279,-0.029,-0.0241,-0.0225,-0.0402,-0.04,-0.04,-0.0399,0,0,-0.0565,-0.0609,-0.0616,-0.0632,-0.0642,-0.0648,-0.066,-0.0642,-0.0624,-0.0611,-0.0569,-0.0543,-0.0489,-0.0464,-0.0423,-0.0347,-0.0272,-0.0325,-0.0319,-0.0259,-0.0093,-0.0133,-0.0119,-0.0229,-0.0226,-0.0223,-0.0096,0,-0.0609,-0.0675,-0.0678,-0.0723,-0.0747,-0.0721,-0.0727,-0.0702,-0.0676,-0.0636,-0.0559,-0.0523,-0.0501,-0.0474,-0.0392,-0.0307,-0.0226,-0.031,-0.0106,-0.01,-0.0117,-0.01,-0.0213,-0.0084,-0.008,-0.0077,-0.0075,0,-0.066,-0.0694,-0.0754,-0.0767,-0.0772,-0.0794,-0.0764,-0.0765,-0.0693,-0.0665,-0.0584,-0.0528,-0.0424,-0.041,-0.0222,-0.028,-0.0186,-0.0116,-0.0108,-0.0103,-0.0108,-0.0061,-0.0045,-0.0047,-0.0049,-0.0051,-0.0053,0,-0.068,-0.0736,-0.0782,-0.0795,-0.0815,-0.0822,-0.0821,-0.077,-0.0755,-0.0669,-0.064,-0.0503,-0.0447,-0.0297,-0.0175,-0.0186,0.0026,0.0038,0.0099,0.0096,0.012,0.0112,0.0204,0.0203,0.0203,0.0203,0.0202,0,-0.0715,-0.075,-0.0803,-0.083,-0.0864,-0.0855,-0.086,-0.0835,-0.0782,-0.0749,-0.065,-0.0592,-0.0414,-0.0285,-0.0158,0.0005,0.0052,0.0114,0.0142,0.0083,0.0069,0.013,0.012,0.0208,0.0207,0.0206,0.0205,0,-0.0727,-0.0768,-0.0824,-0.0866,-0.0883,-0.0904,-0.0916,-0.0908,-0.0856,-0.081,-0.0785,-0.0646,-0.0481,-0.031,-0.0077,0.0011,0.018,0.0234,0.0129,0.0145,0.0181,0.0166,0.0326,0.0326,0.0326,0.0326,0.0326,0,-0.0738,-0.0775,-0.0857,-0.0898,-0.0927,-0.096,-0.098,-0.0952,-0.0936,-0.0841,-0.0814,-0.066,-0.0551,-0.0251,-0.008,0.017,0.0204,0.0279,0.0264,0.0191,0.0203,0.0187,0.0173,0.0326,0.0326,0.0326,0.0326,0,-0.075,-0.0791,-0.0838,-0.093,-0.0981,-0.1019,-0.1041,-0.1034,-0.0983,-0.0945,-0.0808,-0.065,-0.0468,-0.0249,-0.0065,0.0116,0.0222,0.028,0.0281,0.0268,0.0193,0.0201,0.0187,0.0326,0.0326,0.0326,0.0326,0,-0.0754,-0.0795,-0.0872,-0.0942,-0.1015,-0.1054,-0.1063,-0.103,-0.1002,-0.0892,-0.085,-0.0645,-0.0523,-0.0276,-0.0103,0.006,0.0107,0.0155,0.0164,0.0166,0.0071,-0.0051,0.005,0,0,0,0,0,-0.0749,-0.0801,-0.0875,-0.0956,-0.1029,-0.1065,-0.1091,-0.1083,-0.1041,-0.0946,-0.089,-0.0712,-0.044,-0.032,-0.0157,-0.012,0.0113,0.0072,0.0168,0.0327,0.0326,0.0237,0,0,0,0,0,0,-0.0751,-0.0825,-0.0869,-0.0951,-0.1004,-0.107,-0.1088,-0.1063,-0.0994,-0.093,-0.0778,-0.0687,-0.042,-0.0526,-0.0155,-0.0108,-0.003,0.0204,0.0207,0.0327,0.0327,0.0326,0.0234,0,0,0,0,0]}]]